Location: Arbon
(43.0005°N, 0.7472°E)
Time: 08:01:23
(UTC+00:00)

A-11 Canister half - Pass Details

Date: 26 November 2020
Orbit: 1517 x 1683 km, 47.2° (Epoch: 22 January)

Event Time Altitude Azimuth Distance (km) Brightness Sun altitude
Rises 17:48:39 0° 294° (WNW) 4,927 12.5 -14.9°
Reaches altitude 10° 17:51:49 10° 293° (WNW) 3,945 11.9 -15.5°
Maximum altitude 18:01:55 73° 212° (SSW) 1,743 9.3 -17.3°
Drops below altitude 10° 18:11:56 10° 129° (SE) 3,903 10.8 -19.1°
Enters shadow 18:13:25 - 129° (SE) 4,363 11.0 -19.4°
